GFSGBSN_700_spd_000.txt.gz
Wind_Speed
7 7 8 6 6 5 6 6 7 9 10 12 14 16 17 19 21 21 20 19 18 19 17 16 16 17 16 9 8 9 13 15 16 17 7 6 6 5 4 4 5 5 3 3 5 6 5
10 11 10 10 10 9 10 11 13 14 15 15 16 17 19 21 22 21 20 18 17 17 17 17 17 17 12 2 12 10 10 9 7 7 6 8 4 9 4 1 2 3 1 2 3 4 9
13 14 13 11 11 12 13 14 15 16 16 17 17 20 21 21 20 19 18 17 16 16 16 14 13 13 8 6 9 7 10 9 9 11 10 9 8 6 4 5 6 2 5 8 4 5 11
16 16 16 14 13 13 14 15 16 17 17 16 17 18 19 18 17 16 16 16 15 13 11 12 10 10 4 3 9 6 7 6 9 11 12 11 14 17 16 7 8 4 4 11 6 14 9
15 16 17 16 15 14 13 14 16 17 16 15 15 16 16 17 17 16 14 13 13 12 10 7 8 11 4 2 5 6 5 5 7 10 11 13 18 8 12 12 11 3 11 12 12 9 9
14 15 15 16 16 14 13 13 14 15 15 14 15 14 14 16 17 17 17 15 11 10 9 6 6 4 3 3 2 5 3 5 7 11 10 11 5 5 7 13 13 13 12 13 14 12 18
12 12 13 13 13 14 14 13 13 13 14 14 13 14 13 13 15 17 16 17 10 2 8 10 5 10 4 1 4 5 4 4 6 6 4 4 6 4 6 9 10 13 15 17 15 15 20
11 11 11 10 10 11 12 13 12 11 11 12 11 11 11 11 11 13 13 6 12 3 5 7 5 4 1 2 3 9 5 4 4 3 8 6 1 5 7 8 10 14 16 14 15 19 20
10 9 9 8 7 8 9 10 10 10 9 9 10 10 11 11 10 8 6 11 11 6 4 1 1 2 4 6 6 7 7 5 3 3 5 5 6 9 7 7 12 14 7 16 20 22 10
10 8 6 6 6 6 6 6 6 7 8 7 8 9 10 10 9 8 11 11 9 5 4 3 3 5 6 6 5 8 8 5 5 3 5 2 9 7 8 7 13 12 16 21 20 18 17
10 8 6 5 4 4 5 5 4 5 5 5 5 6 8 9 9 10 10 7 3 4 2 2 4 4 5 4 4 10 8 6 3 3 1 4 9 9 9 9 14 15 20 23 23 19 15
11 8 6 4 4 4 4 3 3 4 4 5 4 4 5 6 7 9 8 5 4 2 1 1 1 2 3 6 5 6 9 9 4 6 4 6 13 6 11 12 14 18 23 20 4 4 4
12 10 8 5 4 4 4 3 3 4 5 5 5 5 5 5 5 6 7 7 1 1 1 0 0 2 1 3 3 6 4 10 8 8 5 10 6 9 10 12 11 15 18 8 5 2 4
14 11 8 6 3 2 2 3 3 2 3 4 6 5 5 5 5 5 7 4 0 2 1 5 2 3 1 3 3 5 5 0 11 6 10 6 8 2 12 13 11 13 9 4 4 4 12
16 13 10 7 5 3 2 2 3 3 3 3 5 6 6 4 4 5 8 3 2 2 2 1 4 2 1 4 3 5 6 5 6 11 7 8 1 10 17 14 9 8 6 7 8 15 4
18 15 12 10 7 4 3 1 3 3 3 3 4 5 4 3 3 5 4 4 2 6 1 3 1 1 3 3 4 6 4 5 5 13 8 5 10 6 7 14 11 9 10 5 4 3 5
18 17 14 12 9 6 4 3 1 4 4 3 4 5 1 3 3 3 2 1 1 3 3 5 2 1 2 3 5 4 3 4 4 7 9 9 6 9 15 1 11 8 12 10 12 13 5
20 19 16 14 11 8 6 6 4 1 3 4 8 1 1 4 3 4 1 2 2 1 1 1 2 3 2 5 4 3 3 4 12 11 8 9 8 12 19 8 7 7 9 13 14 13 23
22 20 18 16 13 11 9 9 7 5 2 1 4 1 2 4 3 3 3 2 2 2 1 2 2 2 4 3 3 3 5 12 12 7 8 11 4 10 9 2 3 17 25 26 28 28 19
25 22 20 18 16 14 12 10 9 8 7 4 2 3 1 2 4 2 4 2 2 1 2 2 4 4 4 3 4 5 8 8 17 15 17 13 9 8 15 21 28 31 31 34 34 35 34
27 26 24 21 18 15 15 12 10 9 8 7 6 5 4 0 3 7 4 3 2 5 5 3 3 2 3 4 9 5 6 13 12 16 17 13 19 17 25 26 26 31 32 34 37 39 36
30 28 25 23 21 19 19 16 13 11 10 10 8 6 7 7 5 2 4 3 4 5 2 3 4 6 5 7 10 14 15 13 15 14 15 18 28 30 37 37 26 29 35 45 39 30 28
32 30 28 26 24 22 20 19 17 14 12 13 12 12 10 8 9 7 5 2 3 6 8 8 7 7 11 17 18 19 23 25 26 26 27 26 31 31 28 30 31 32 23 22 22 28 29
33 32 30 27 25 23 22 21 19 17 16 16 13 14 14 13 12 8 6 7 7 8 9 8 10 12 17 21 24 27 28 27 27 21 20 27 30 32 27 30 7 14 20 31 26 22 27
34 33 31 29 26 25 24 23 21 20 19 19 16 16 18 19 16 13 12 13 12 13 14 13 11 17 22 23 27 25 27 16 15 7 8 9 20 23 16 24 35 27 23 17 30 31 30
36 35 33 31 29 27 25 25 23 21 21 20 20 18 20 20 20 18 14 12 16 18 18 18 20 19 16 23 22 13 8 13 6 11 14 16 18 20 27 25 15 21 33 19 23 31 21
38 37 35 34 33 31 28 27 25 23 21 21 22 20 21 24 22 22 19 16 17 18 19 17 19 21 21 21 22 20 16 14 13 13 16 20 23 29 34 26 26 32 28 21 17 21 48
40 38 36 36 34 33 31 28 28 26 24 24 24 23 25 28 26 25 24 21 21 22 22 22 21 21 22 21 20 24 18 15 18 19 21 23 22 25 24 18 20 13 22 30 50 47 49
40 39 41 36 35 34 32 31 29 29 27 27 25 26 29 31 31 31 28 24 21 20 24 23 26 22 17 19 23 20 25 30 31 37 31 22 21 29 31 31 48 49 49 50 48 50 49

GFSGBSN_700_spd_006.txt.gz
Wind_Speed
2 0 1 1 1 5 5 1 6 8 10 12 13 15 19 22 24 24 23 22 23 22 21 19 17 17 17 17 22 18 18 19 20 22 22 19 11 8 7 3 0 4 7 7 6 10 17
3 3 3 5 6 6 9 9 10 12 13 15 17 20 22 24 24 23 23 22 23 21 21 20 18 20 19 17 19 17 13 15 16 14 15 16 10 7 5 1 4 6 2 5 5 7 11
7 5 8 8 9 10 11 13 14 15 16 18 19 21 23 24 23 22 22 21 21 22 22 19 16 15 16 13 16 16 15 17 14 16 18 14 8 9 10 6 6 7 8 7 6 4 6
10 9 11 10 10 11 13 15 16 16 18 19 20 21 23 23 22 22 21 21 21 19 17 16 15 14 11 9 10 14 16 15 16 19 16 13 9 7 8 6 2 6 8 10 16 5 5
12 12 12 12 12 12 13 14 15 16 17 18 18 19 21 22 21 20 19 19 19 18 16 14 12 11 10 8 7 9 11 13 15 16 13 10 7 6 7 7 5 8 6 13 11 9 6
12 13 14 13 12 12 13 13 14 15 16 16 16 18 20 22 22 22 21 21 19 17 14 11 8 7 8 5 6 6 8 9 11 11 9 4 3 6 7 8 7 11 11 9 1 8 14
13 12 13 13 12 11 11 12 12 14 15 15 16 18 19 21 22 24 24 21 17 13 10 5 4 5 3 3 2 4 5 6 6 4 5 2 4 4 7 4 4 8 11 10 10 12 20
11 11 12 12 12 11 11 10 11 12 13 15 16 17 19 21 23 21 19 17 12 9 6 6 5 4 2 1 3 7 4 1 2 2 1 3 3 3 8 5 6 11 14 10 14 15 15
10 9 10 10 10 11 11 10 10 11 13 14 15 16 17 18 17 16 10 12 11 11 9 6 5 4 4 2 4 6 4 2 4 1 1 2 2 7 10 9 10 11 14 15 17 19 3
9 8 8 7 8 8 9 9 9 9 9 11 12 13 14 14 13 10 11 12 11 9 5 4 5 4 7 3 5 8 7 2 3 3 2 1 6 12 7 10 13 13 12 15 18 14 5
9 7 6 6 6 6 6 7 8 9 9 9 9 9 10 10 9 10 13 11 7 6 3 3 5 4 6 10 5 7 8 5 3 3 2 3 7 12 12 10 11 19 20 20 12 6 4
9 7 5 5 5 5 4 5 6 7 8 9 8 8 9 9 10 13 11 7 6 3 2 3 4 3 3 7 9 3 8 7 5 1 3 7 7 7 11 10 15 14 18 8 1 1 2
9 7 6 5 5 5 3 3 4 5 6 7 8 8 7 8 9 11 9 10 7 4 4 3 3 2 3 6 6 5 10 10 10 5 8 4 2 5 11 18 7 18 20 8 4 4 4
12 9 7 5 5 4 4 4 3 4 6 6 6 7 7 7 9 8 9 8 4 9 7 4 4 5 5 3 7 4 7 9 9 10 6 6 4 9 12 15 14 13 18 5 1 0 9
14 11 9 6 4 4 4 4 4 4 5 6 6 6 7 8 8 8 10 5 5 5 4 4 4 3 4 5 3 2 8 9 13 14 7 8 3 7 12 10 9 7 14 7 3 3 3
16 13 10 8 6 4 4 5 5 5 6 7 7 7 7 8 9 10 10 7 4 4 2 6 5 5 4 2 1 3 6 6 8 13 10 6 8 6 10 4 5 6 10 5 7 2 3
18 15 12 10 8 7 6 5 6 7 8 9 8 9 10 11 11 10 9 6 3 5 5 6 5 3 1 1 1 4 2 3 4 11 10 9 6 9 5 2 4 4 6 7 5 5 3
19 18 16 13 11 9 7 7 6 8 9 9 9 10 11 12 10 8 7 6 6 6 5 4 4 4 4 1 3 3 1 5 9 13 10 11 5 12 9 6 6 2 9 20 8 6 21
22 20 17 15 13 11 9 8 8 9 8 6 5 9 10 9 8 7 7 4 4 3 3 4 4 3 3 2 1 3 2 6 9 11 11 11 6 7 1 4 3 14 19 25 26 16 15
24 22 19 17 15 13 12 10 9 10 9 6 8 8 9 7 7 8 7 7 5 4 3 1 2 1 3 3 2 3 4 3 7 14 16 15 11 10 10 13 16 23 28 28 28 21 26
25 23 21 18 17 16 14 12 10 9 10 9 8 9 10 10 8 7 5 4 0 2 3 3 3 2 4 4 7 10 10 9 12 16 16 15 18 18 24 20 21 30 32 30 32 27 28
27 25 23 21 19 18 16 14 12 11 9 8 8 8 9 10 8 9 8 7 5 5 5 5 6 6 8 10 11 13 16 18 22 19 20 22 23 21 29 26 24 32 31 20 16 19 29
29 27 25 23 21 19 18 17 15 13 10 8 7 7 7 7 8 7 8 10 10 9 7 10 12 14 13 14 18 19 20 21 21 23 23 27 21 15 12 20 22 27 12 20 24 26 25
31 29 27 25 22 21 19 18 17 15 13 11 10 9 8 7 7 8 10 11 11 13 12 12 13 15 17 19 19 22 24 21 16 9 15 19 14 16 15 20 4 18 24 25 24 22 25
33 31 28 27 25 23 22 20 19 17 16 15 13 12 11 10 9 9 11 13 13 14 14 15 18 19 20 18 22 22 21 9 12 9 9 10 11 12 8 8 22 29 15 14 23 26 29
33 32 30 28 26 24 23 22 20 19 19 17 16 15 14 13 12 11 12 13 15 15 16 17 16 18 19 19 19 11 9 16 4 8 11 17 16 17 22 11 6 25 24 19 15 31 21
34 32 30 29 28 26 26 24 22 21 20 19 17 16 16 14 15 13 12 13 14 15 17 18 18 18 19 19 19 21 15 15 10 11 16 16 16 24 26 23 19 33 24 14 16 33 49
34 33 31 30 29 27 26 25 24 22 21 20 20 19 18 18 17 16 15 15 15 15 16 18 18 22 21 18 14 16 15 14 17 21 20 21 16 23 19 11 14 15 16 32 47 55 49
34 33 32 31 30 28 28 27 26 24 22 22 22 21 21 21 19 17 16 16 15 17 18 20 23 23 15 17 20 20 25 28 31 31 32 28 27 29 29 34 40 44 43 38 39 40 44

GFSGBSN_700_spd_009.txt.gz
Wind_Speed
7 6 4 5 5 3 0 3 6 6 7 10 12 14 16 17 20 23 23 22 22 20 19 16 16 18 21 16 21 20 19 19 19 17 13 13 9 7 7 8 8 9 7 7 5 4 7
3 1 2 1 0 1 3 4 8 9 10 12 14 17 19 22 25 24 23 23 22 20 18 19 17 16 16 17 17 15 14 13 13 15 12 12 9 7 6 5 5 6 4 3 4 3 4
3 4 4 4 5 7 6 8 10 13 16 18 19 21 23 25 25 24 23 23 22 19 19 19 18 20 18 15 16 14 13 15 15 13 13 16 11 7 6 4 3 4 3 2 8 6 5
6 6 6 8 9 11 11 13 14 16 18 20 22 23 23 23 22 22 21 21 19 19 19 17 16 15 14 12 12 14 17 17 18 17 16 12 10 6 6 1 4 3 2 8 4 4 3
9 8 9 10 11 12 14 15 16 18 20 21 22 23 23 22 21 21 20 20 19 17 16 16 14 14 12 13 12 13 14 15 16 13 11 8 7 5 4 4 1 4 5 9 1 2 5
10 10 10 11 11 12 13 14 15 17 19 20 21 21 22 21 21 20 20 20 19 17 14 13 9 8 9 10 10 11 11 13 14 11 9 7 2 3 5 7 2 6 10 10 7 11 14
11 10 11 11 11 11 12 12 12 15 16 17 17 18 20 20 21 21 22 22 18 14 10 6 7 6 4 7 6 4 7 10 10 10 10 5 1 3 6 9 7 8 12 16 9 9 20
11 10 11 11 11 9 10 10 11 13 14 15 17 18 19 20 21 21 19 18 15 13 9 9 8 6 6 5 4 3 4 5 7 4 3 2 1 3 8 8 7 9 13 15 11 14 15
10 9 9 10 10 9 9 10 10 11 12 14 15 16 18 18 18 17 16 13 12 11 10 10 8 7 5 3 5 5 4 2 3 3 1 2 3 7 7 7 9 10 10 14 17 18 4
10 9 8 8 8 8 9 10 9 10 11 13 14 15 16 17 16 14 13 11 13 13 6 6 5 5 6 3 5 6 5 1 1 1 3 3 4 8 7 9 12 13 16 16 15 14 3
11 10 8 7 6 6 7 9 10 10 10 11 12 13 14 14 13 11 12 11 10 8 4 3 7 4 8 9 3 5 7 5 3 3 2 1 3 6 7 11 15 16 15 16 13 6 4
11 10 8 7 5 6 5 6 9 10 11 11 11 12 13 12 11 13 13 9 8 3 3 4 4 3 7 8 4 5 8 5 4 2 1 2 1 3 6 12 8 13 13 4 2 2 2
11 9 7 6 5 5 5 5 7 8 10 11 11 12 12 12 13 14 10 10 5 4 7 5 4 3 5 6 3 6 9 7 7 1 3 2 2 3 8 14 4 14 10 3 3 3 4
11 8 7 5 5 5 5 5 6 7 8 9 10 11 11 10 13 12 11 8 3 9 7 6 4 5 6 4 5 6 9 9 11 11 5 5 2 6 10 10 9 11 13 5 3 1 7
12 9 7 5 5 5 5 4 5 7 8 9 9 9 10 12 12 12 12 5 5 10 7 6 6 5 5 3 2 4 9 9 11 15 9 7 3 7 7 8 4 4 7 6 1 2 4
14 11 9 7 6 5 5 5 5 6 7 9 10 9 9 11 12 12 11 6 8 8 5 7 7 5 6 3 2 1 4 6 7 12 10 8 5 7 8 3 3 4 4 3 6 3 3
16 13 11 8 7 6 6 4 4 6 8 9 9 10 11 12 13 11 8 7 7 7 7 7 7 5 5 4 3 2 0 3 5 10 9 9 6 8 2 4 4 3 2 3 2 2 3
18 16 13 11 10 8 7 6 5 7 9 10 10 12 13 13 12 10 8 8 8 7 7 6 6 5 4 3 4 2 1 3 9 9 10 11 3 8 5 1 4 6 4 11 4 4 12
21 18 17 15 12 10 9 8 7 7 9 9 8 12 14 12 9 10 10 8 7 6 5 5 6 5 4 3 2 3 2 4 7 8 12 12 6 6 2 5 9 15 21 14 22 19 14
23 20 19 18 15 13 12 11 10 9 7 6 10 11 12 9 9 9 9 9 8 6 5 4 5 4 3 2 2 3 5 6 8 9 15 16 10 11 11 13 20 29 28 28 27 19 21
26 23 21 19 18 17 15 13 11 11 12 10 9 11 12 12 11 10 10 9 8 7 5 5 4 4 2 2 5 8 9 10 12 16 16 13 18 23 25 22 24 31 32 28 30 29 24
27 24 22 21 20 18 16 14 11 10 11 12 12 11 11 11 10 10 7 8 6 6 6 5 5 6 8 10 10 11 13 15 16 16 15 19 21 24 31 20 16 29 30 17 15 20 24
29 26 24 22 22 20 19 17 15 13 11 10 10 12 12 12 11 11 12 11 9 9 8 8 8 10 11 11 14 16 16 16 18 19 20 22 18 9 11 18 19 22 7 22 23 28 32
29 28 26 24 23 22 21 19 18 16 14 12 11 11 12 11 12 12 12 12 12 12 11 12 13 11 12 16 18 18 21 16 13 10 15 16 14 12 14 18 1 17 29 29 27 21 24
31 30 28 27 25 23 21 20 19 17 16 14 13 12 12 12 12 13 13 13 13 13 13 14 14 15 18 17 19 19 19 3 10 11 7 11 12 12 8 10 19 31 12 18 21 30 28
34 31 30 29 27 25 23 23 22 21 19 18 17 15 14 12 13 14 15 16 16 15 16 18 18 17 17 17 17 10 6 13 5 7 12 12 14 17 21 10 6 23 23 25 22 30 14
35 34 32 31 29 27 25 24 23 22 20 20 19 17 15 14 14 13 14 16 16 16 16 16 17 17 17 17 19 18 16 16 9 11 11 15 15 20 26 24 18 28 21 20 14 23 42
36 35 34 33 30 29 27 25 24 24 23 21 20 19 17 16 15 14 14 15 15 17 17 16 14 17 18 17 15 15 11 13 16 18 19 20 16 23 17 8 14 20 25 33 44 49 43
39 35 34 33 32 30 28 27 25 24 24 23 22 21 20 19 15 13 15 16 18 19 20 20 21 19 15 19 15 15 19 27 30 33 32 24 28 28 21 24 43 46 45 37 32 37 42

GFSGBSN_700_spd_012.txt.gz
Wind_Speed
12 11 10 9 8 5 4 4 5 6 7 10 11 13 14 15 18 20 21 22 21 18 15 15 17 20 20 16 15 18 16 15 14 10 7 8 6 3 5 11 15 13 8 5 3 3 4
8 8 6 5 3 1 1 3 5 8 9 11 13 14 16 18 20 21 21 21 20 18 16 13 14 17 17 9 15 16 13 11 9 8 7 5 8 10 12 11 8 7 5 2 2 4 1
4 4 2 2 2 4 6 7 9 11 12 15 16 18 20 21 22 22 23 21 19 16 14 14 16 16 17 13 15 13 11 11 11 10 9 11 12 10 9 8 6 5 3 2 1 2 5
2 1 3 4 4 6 7 11 13 15 16 17 19 19 21 22 22 22 21 19 16 14 14 15 16 16 13 11 9 11 13 12 11 11 11 11 8 5 4 3 2 2 1 2 3 1 5
4 5 5 7 8 8 10 12 15 17 18 19 20 20 21 21 21 21 21 17 15 15 14 15 14 12 10 10 10 11 13 13 13 14 14 10 6 3 6 4 1 2 2 6 2 2 5
7 7 7 9 9 11 12 13 15 16 18 19 20 20 20 20 20 20 18 18 17 14 14 14 12 8 9 9 9 10 11 12 12 9 5 4 2 0 2 7 4 6 8 10 12 13 15
9 8 8 10 10 11 12 13 14 15 16 18 18 19 20 21 21 21 21 18 18 15 13 7 9 7 9 7 5 5 7 10 11 9 7 5 2 4 7 9 6 7 11 14 13 11 18
10 9 9 10 9 10 10 11 13 14 15 16 17 18 18 19 19 18 17 16 14 13 10 10 10 8 8 6 5 3 5 8 8 7 5 3 1 4 6 7 7 10 12 12 8 11 16
10 10 10 10 9 9 9 9 10 12 14 15 16 16 16 14 13 13 15 13 11 9 12 12 11 9 7 5 5 4 3 3 2 1 1 2 4 6 4 5 7 8 7 13 15 14 6
10 9 10 10 10 8 8 8 9 11 12 14 14 14 14 14 14 14 12 9 11 13 7 6 5 8 5 3 5 7 5 3 1 3 6 5 2 4 5 9 11 12 13 14 13 10 1
11 9 9 10 10 8 8 8 8 10 11 12 14 14 14 15 14 11 12 9 11 10 4 4 8 6 7 4 3 6 6 4 3 3 2 2 2 4 6 9 12 10 14 16 10 4 2
11 10 9 10 9 8 8 8 9 9 10 11 12 13 15 14 14 11 12 10 10 4 3 5 5 6 5 7 7 9 8 3 3 1 0 2 3 3 4 10 11 13 13 5 3 2 2
13 11 10 9 9 8 7 8 8 9 10 11 12 14 14 14 13 15 14 11 5 3 8 7 5 7 5 6 5 7 9 4 3 2 3 2 3 3 6 9 5 11 7 2 2 3 3
14 12 11 10 9 9 7 7 9 10 11 12 12 13 13 13 16 15 11 9 3 10 7 8 7 6 4 3 6 7 7 10 11 8 3 5 1 4 6 8 8 10 10 5 2 1 6
15 12 11 11 9 9 8 8 8 10 10 11 11 11 11 12 15 12 12 4 4 11 10 8 9 6 4 1 1 4 8 10 11 13 7 7 2 5 10 5 4 4 5 6 1 2 3
15 13 11 10 9 9 8 8 8 9 10 11 11 11 11 14 13 14 12 6 10 9 9 8 7 4 5 2 1 3 5 6 6 11 10 8 2 5 4 2 3 2 2 3 4 2 3
17 14 12 11 10 9 8 8 8 9 10 11 11 11 12 12 12 12 9 7 11 9 7 7 6 5 5 3 2 1 1 3 6 9 8 8 3 5 4 3 2 2 1 2 2 2 3
19 16 14 12 11 10 9 7 8 9 10 11 12 11 12 13 12 10 8 10 9 8 7 5 5 4 3 2 2 1 1 2 5 7 9 11 4 8 7 4 2 4 3 6 3 2 8
21 19 16 14 13 11 10 8 8 9 9 10 10 10 13 13 10 11 10 10 9 7 7 6 5 4 4 3 2 3 2 4 6 9 10 14 7 7 5 4 2 8 11 20 16 15 12
23 20 19 17 14 13 12 10 9 9 9 8 10 11 13 12 8 10 12 11 10 8 7 6 5 4 3 2 1 1 3 5 10 10 13 16 7 7 7 15 22 28 25 26 25 18 20
25 22 20 19 17 15 14 13 12 11 9 8 10 9 13 13 12 11 11 10 9 8 6 5 3 2 1 0 3 4 5 7 11 15 15 12 13 17 20 20 22 24 25 24 24 27 23
28 25 23 21 19 18 17 15 13 12 12 11 10 8 12 12 12 13 11 10 9 7 5 4 3 2 3 5 6 9 11 12 12 13 14 19 16 21 25 13 17 30 28 13 12 20 25
29 26 24 22 20 18 17 16 14 12 11 11 12 10 11 12 13 13 11 10 9 7 6 6 4 4 7 6 9 12 13 11 16 18 17 17 15 13 14 18 22 20 2 18 27 19 23
31 28 26 24 21 20 18 18 16 15 13 11 11 11 13 14 14 13 11 10 10 9 8 8 8 8 8 11 13 14 14 13 12 13 11 13 13 12 12 19 2 12 18 28 17 22 25
31 30 28 25 22 21 19 19 18 17 15 14 13 12 12 13 13 14 14 13 12 12 10 10 10 10 12 14 15 11 13 5 7 15 11 8 12 10 7 7 17 32 14 19 28 31 28
31 30 29 27 26 23 21 20 19 18 17 17 16 15 14 12 13 14 14 14 14 13 13 13 13 14 15 15 14 6 4 14 5 9 11 13 14 16 18 7 5 18 23 22 21 31 13
34 32 31 28 26 25 23 21 21 20 20 19 19 17 16 14 13 13 15 15 15 15 16 15 16 16 17 17 16 13 11 15 8 10 13 13 15 22 27 22 22 30 17 17 16 29 35
34 34 31 29 28 26 25 24 23 21 20 20 19 19 17 16 15 14 16 16 16 16 16 16 16 20 18 18 13 11 10 11 14 16 17 20 16 23 15 8 10 8 23 32 40 44 47
36 34 32 32 30 28 27 25 24 23 23 22 22 21 20 19 15 16 18 18 17 17 17 20 22 22 14 13 10 9 13 20 22 26 27 22 23 23 22 26 40 44 46 37 37 42 44